Marshalltown, IA

11:05 AM CST on December 10, 2016 (GMT -0600)
Marshalltown Municipal

Weather History for KMIW - November, 2013

Change the Weather History Date:

Wednesday, November 13, 2013

  Actual Average Record
Temperature  
Mean Temperature 33 °F 38 °F  
Max Temperature 48 °F 48 °F 79 °F (1999)
Min Temperature 18 °F 28 °F 14 °F (1996)
Degree Days  
Heating Degree Days 32 27  
Month to date heating degree days 345 315  
Since 1 July heating degree days 894 948  
Cooling Degree Days 0 0  
Month to date cooling degree days 0 0  
Year to date cooling degree days 872 728  
Moisture  
Dew Point 15 °F    
Average Humidity 54    
Maximum Humidity 73    
Minimum Humidity 34    
Precipitation  
Precipitation 0.00 in 0.08 in 0.22 in (2006)
Month to date precipitation 0.91 1.32  
Sea Level Pressure  
Sea Level Pressure 30.30 in    
Wind  
Wind Speed 15 mph (SSW)    
Max Wind Speed 26 mph    
Max Gust Speed 32 mph    
Visibility 10 miles    
Events      
T = Trace of Precipitation, MM = Missing Value Source: NWS Daily Summary

Daily Weather History Graph

Daily Weather History Graph

Search for Another Location

Airport or City:

Trip Planner

Search our weather history database for the weather conditions in past years. The results will help you decide how hot, cold, wet, or windy it might be!

Date:

Astronomy

Nov. 13, 2013 Rise Set
Actual Time 6:59 AM CST 4:51 PM CST
Civil Twilight 6:29 AM CST 5:21 PM CST
Nautical Twilight 5:55 AM CST 5:55 PM CST
Astronomical Twilight 5:22 AM CST 6:28 PM CST
Moon 2:43 PM CST (11/13) 2:49 AM CST (11/13)
Length of Visible Light 10h 52m
Length of Day
9h 52m
Waxing Gibbous, 85% of the Moon is Illuminated
Nov 13
Waxing Gibbous
Nov 17
Full
Nov 25
Last Quarter
Dec 2
New
Dec 9
First Quarter

Hourly Weather History & Observations

Time (CST) Temp. Windchill Dew Point Humidity Pressure Visibility Wind Dir Wind Speed Gust Speed Precip Events Conditions
12:53 AM 19.9 °F 12.1 °F 12.0 °F 71% 30.60 in 10.0 mi SSW 5.8 mph - N/A   Clear
1:53 AM 19.9 °F 9.3 °F 10.9 °F 68% 30.58 in 10.0 mi SSW 9.2 mph - N/A   Clear
2:53 AM 19.9 °F 10.1 °F 10.9 °F 68% 30.56 in 10.0 mi SSW 8.1 mph - N/A   Clear
3:53 AM 19.9 °F 9.3 °F 10.9 °F 68% 30.54 in 10.0 mi SSW 9.2 mph - N/A   Clear
4:53 AM 21.0 °F 8.1 °F 10.9 °F 65% 30.51 in 10.0 mi South 13.8 mph - N/A   Clear
5:53 AM 19.9 °F 7.9 °F 10.9 °F 68% 30.48 in 10.0 mi South 11.5 mph - N/A   Clear
6:53 AM 21.9 °F 9.2 °F 12.0 °F 66% 30.45 in 10.0 mi South 13.8 mph - N/A   Clear
7:53 AM 24.1 °F 12.0 °F 12.0 °F 60% 30.44 in 10.0 mi SSW 13.8 mph - N/A   Clear
8:53 AM 28.0 °F 16.5 °F 14.0 °F 56% 30.41 in 10.0 mi SSW 15.0 mph - N/A   Clear
9:53 AM 33.1 °F 22.6 °F 15.1 °F 48% 30.39 in 10.0 mi SSW 16.1 mph - N/A   Clear
10:53 AM 37.0 °F 27.4 °F 17.1 °F 44% 30.37 in 10.0 mi South 17.3 mph 23.0 mph N/A   Clear
11:53 AM 41.0 °F 31.9 °F 18.0 °F 40% 30.31 in 10.0 mi SSW 19.6 mph 31.1 mph N/A   Clear
12:53 PM 44.1 °F 35.9 °F 19.0 °F 37% 30.26 in 10.0 mi SSW 19.6 mph 29.9 mph N/A   Clear
1:53 PM 46.0 °F 38.5 °F 19.9 °F 35% 30.22 in 10.0 mi South 19.6 mph 26.5 mph N/A   Clear
2:53 PM 46.9 °F - 19.9 °F 34% 30.18 in 10.0 mi SSW 20.7 mph 29.9 mph N/A   Clear
3:53 PM 46.9 °F - 19.9 °F 34% 30.16 in 10.0 mi South 15.0 mph - N/A   Clear
4:53 PM 44.1 °F 36.8 °F 19.0 °F 37% 30.14 in 10.0 mi South 16.1 mph - N/A   Clear
5:53 PM 41.0 °F 32.5 °F 17.1 °F 38% 30.14 in 10.0 mi South 17.3 mph - N/A   Clear
6:53 PM 39.0 °F 29.9 °F 16.0 °F 39% 30.13 in 10.0 mi South 17.3 mph - N/A   Clear
7:53 PM 37.0 °F 28.9 °F 15.1 °F 41% 30.12 in 10.0 mi South 12.7 mph - N/A   Clear
8:53 PM 37.0 °F 28.5 °F 16.0 °F 42% 30.12 in 10.0 mi SSW 13.8 mph - N/A   Clear
9:53 PM 35.1 °F 25.9 °F 17.1 °F 48% 30.09 in 10.0 mi South 13.8 mph - N/A   Clear
10:53 PM 36.0 °F 27.1 °F 17.1 °F 46% 30.06 in 10.0 mi SSW 13.8 mph - N/A   Clear
11:53 PM 36.0 °F 26.7 °F 18.0 °F 48% 30.05 in 10.0 mi SSW 15.0 mph 23.0 mph N/A   Clear